This is the latest recevied weather packets stored in our database for station/object KN6CW-3. If no packets are shown the sender has not sent any weather packets the latest 10 day(s).
| Time | Temp. | Humidity | Pressure | Rain* | Wind** | Luminosity | Snow |
|---|---|---|---|---|---|---|---|
| 1777919882 | 18.33° C | 41% | 1010.6 hPa | 0 mm | - | 635 W/m² | - |
| 1777919582 | 18.89° C | 42% | 1010.6 hPa | 0 mm | - | 512 W/m² | - |
| 1777919281 | 18.89° C | 43% | 1010.8 hPa | 0 mm | - | 561 W/m² | - |
| 1777918981 | 18.89° C | 43% | 1010.7 hPa | 0 mm | - | 925 W/m² | - |
| 1777918681 | 18.33° C | 43% | 1010.6 hPa | 0 mm | - | 902 W/m² | - |
| 1777918380 | 18.33° C | 43% | 1010.7 hPa | 0 mm | - | 896 W/m² | - |
| 1777918080 | 18.33° C | 43% | 1010.8 hPa | 0 mm | - | 896 W/m² | - |
| 1777917780 | 17.78° C | 43% | 1011 hPa | 0 mm | - | 904 W/m² | - |
| 1777917479 | 17.78° C | 44% | 1011 hPa | 0 mm | - | 896 W/m² | - |
| 1777917180 | 17.78° C | 44% | 1011.1 hPa | 0 mm | - | 912 W/m² | - |
| 1777916879 | 17.78° C | 44% | 1011.1 hPa | 0 mm | - | 909 W/m² | - |
| 1777916579 | 17.78° C | 45% | 1011.1 hPa | 0 mm | - | 916 W/m² | - |
| 1777916278 | 17.78° C | 44% | 1011.2 hPa | 0 mm | - | 828 W/m² | - |
| 1777915978 | 17.22° C | 45% | 1011.3 hPa | 0 mm | - | 916 W/m² | - |
| 1777915678 | 17.22° C | 45% | 1011.4 hPa | 0 mm | - | 925 W/m² | - |
| 1777915377 | 17.22° C | 43% | 1011.4 hPa | 0 mm | - | 926 W/m² | - |
| 1777915077 | 17.22° C | 43% | 1011.5 hPa | 0 mm | - | 926 W/m² | - |
| 1777914777 | 17.22° C | 43% | 1011.5 hPa | 0 mm | - | 928 W/m² | - |
| 1777914477 | 17.22° C | 44% | 1011.8 hPa | 0 mm | - | 930 W/m² | - |
| 1777914176 | 16.67° C | 45% | 1011.8 hPa | 0 mm | - | 933 W/m² | - |
| 1777913876 | 16.67° C | 42% | 1011.9 hPa | 0 mm | - | 933 W/m² | - |
| 1777913576 | 16.67° C | 42% | 1011.8 hPa | 0 mm | - | 933 W/m² | - |
| 1777913275 | 16.67° C | 43% | 1011.9 hPa | 0 mm | - | 926 W/m² | - |
| 1777912975 | 16.67° C | 43% | 1012.1 hPa | 0 mm | - | 928 W/m² | - |
| 1777912675 | 16.11° C | 44% | 1011.9 hPa | 0 mm | - | 923 W/m² | - |
* Rain latest hour (hover to see other rain measurements)
** Current wind speed in m/s (hover to see current wind gust speed)